GLOBALSTAR M078 [+] (39076 NORAD) Tracking and Keplerian Element Data

This shows tracking and keplerian element data for the satellite.

Feedback or suggestion? Click here.




ElementValue
Catalog39076
NameGLOBALSTAR M078 [+]
Epoch Orbit25158
Epoch Day202.78635931
Epoch Year2018
RAAN76.2422
Inclination51.9884
Eccentricity0.0002541
Argument of Perigee18.751
Mean Anonmoly341.345
Mean Motion12.62038172
Decay Rate-1.15E-06
L11 39076U 13005E 18202.78635931 -.00000115 00000-0 -60842-4 0 9992
L22 39076 51.9884 76.2422 0002541 18.7510 341.3450 12.62038172251582

Live tracking and technical data element details for GLOBALSTAR M078 [+] (NORAD 39076). GLOBALSTAR M078 [+] can be tracked NOW for your location showing map with azimuth and elevation plus other details from your city location.

Track the satellite on the map from your city or location and see movement details for azimuth, elevation, latitude, longitude, range, height, and movement on the map or in text.







IsCatalogInMostPopularTable: catalog: 39076, numindb: 78
Update: records affected: 1



GetName: 39076 GLOBALSTAR M078 [+]

Hit Count: updated at: Mon, 23 Jul 2018 08:02:44 GMT